Location: Lane
(33.5226°N, 79.8788°W)
Time: 08:19:41
(UTC+00:00)

Altair - Pass Details

Date: 03 October 2022
Orbit: 1501 x 1682 km, 47.2° (Epoch: 08 December)

Event Time Altitude Azimuth Distance (km) Brightness Sun altitude
Rises 16:41:26 0° 306° (NW) 4,918 9.9 51.8°
Reaches altitude 10° 16:44:35 10° 305° (NW) 3,938 9.5 51.9°
Maximum altitude 16:54:45 80° 221° (SW) 1,702 9.0 52.2°
Drops below altitude 10° 17:04:49 10° 135° (SE) 3,901 10.2 52.3°
Sets 17:07:56 0° 134° (SE) 4,869 10.5 52.3°
